Location: Unspecified
(0.0000°N, 0.0000°E)
Time: 21:52:40
(UTC+00:00)

Tiros 1 - Pass Details

Date: 27 October 2021
Orbit: 630 x 664 km, 48.4° (Epoch: 04 December)

Event Time Altitude Azimuth Distance (km) Brightness Sun altitude
Rises 05:00:35 0° 201° (SSW) 2,978 10.5 -10.6°
Reaches altitude 10° 05:03:10 10° 189° (S) 2,069 9.8 -9.9°
Maximum altitude 05:07:19 29° 129° (SE) 1,204 9.3 -8.9°
Drops below altitude 10° 05:11:27 10° 69° (ENE) 2,071 10.7 -7.9°
Sets 05:14:03 0° 58° (ENE) 2,981 11.3 -7.3°
